Aérodrome :
LOGIN :

S'inscrire | Disclaimer

   EN    FR    IT 

 










Légende :    VFR   VFR Marginal   IFR   IFR Intensif   IFR Très Intensif
Visi : 
Plafond : 
>= 8 km
>= 3000ft
5 à 8 km
1000 à 3000 ft
1500m à 5 km
500 à 1000 ft
800 à 1500m
200 à 500 ft
< 800m
< 200 ft
Symboles :   Orages  Brouillard  Fortes neiges  Fortes précipitations  Vent > 20 kt
SIGMETs :   Divers  Orages  Givrage  Turbulence  Onde Orograph.  Cendres Volcan.






- Altitude de l'aérodrome : 1367 ft
- Code IATA : FDH


EDNY - Friedrichshafen

DERNIER METAR :
  • 202320Z AUTO VRB02KT 9999 // BKN130/// M03/M04 Q1004

METARs EXPIRÉS :
  • 202250Z AUTO VRB02KT 9999 // BKN140/// BKN190/// M03/M04 Q1004
  • 202220Z AUTO VRB02KT 9999 // FEW130/// BKN150/// BKN170/// M03/M04 Q1005
  • 202150Z AUTO VRB02KT 9999 // OVC170/// M03/M04 Q1005
  • 202120Z AUTO 04004KT 330V100 9999 // BKN170/// M03/M03 Q1005
  • 202050Z AUTO 07004KT 030V100 9999 // FEW130/// BKN150/// M03/M04 Q1005
  • 202020Z AUTO VRB01KT 9999 // SCT150/// SCT170/// M03/M03 Q1005

TAF TAF EDNY
Valide du 20 à 18h jusqu'au 21 à 18h UTC


201700Z 2018/2118 VRB03KT CAVOK



MET'MAP, la Météo Aéronautique d'un coup d'oeil ! - Copyright ORBIFLY Décembre 2007 - Disclaimer

ORBIFLY MET'MAP TEAM :

Programmation & Développement : Alexandra Zaïnal
Sur une idée originale de : Baudouin d'Aumeries
Assistance à la programmation : Marc-Olivier Méhu
Soutien technique & logistique : Manuel Goepfert

Contact : metmap@orbifly.com




SOURCES & CREDITS :

   NOAA